QPF
0.03 0.04 0.06 0.05 0.04 0.04 0.03 0.05 0.03 0.02 0.02 0.03 0.05 0.07 0.08 0.08 0.08 0.07 0.07 0.07 0.08 0.08 0.08 0.09 0.11 0.10 0.08 0.08 0.09 0.11 0.12 0.11 0.08 0.05 0.05 0.07 0.08 0.08 0.09 0.08 0.06 0.05 0.05
0.03 0.04 0.06 0.05 0.03 0.03 0.03 0.04 0.03 0.02 0.03 0.04 0.05 0.08 0.09 0.10 0.10 0.08 0.07 0.09 0.08 0.07 0.10 0.11 0.10 0.10 0.09 0.09 0.09 0.09 0.10 0.11 0.10 0.08 0.06 0.05 0.07 0.08 0.09 0.08 0.07 0.06 0.05
0.03 0.04 0.06 0.06 0.04 0.03 0.03 0.04 0.03 0.02 0.02 0.03 0.03 0.05 0.06 0.07 0.07 0.07 0.08 0.09 0.07 0.07 0.09 0.10 0.10 0.09 0.08 0.08 0.10 0.09 0.07 0.06 0.07 0.08 0.05 0.02 0.05 0.08 0.09 0.09 0.09 0.07 0.05
0.03 0.04 0.06 0.08 0.04 0.02 0.02 0.03 0.03 0.03 0.02 0.02 0.02 0.03 0.03 0.03 0.05 0.06 0.07 0.07 0.06 0.06 0.07 0.09 0.10 0.08 0.07 0.06 0.08 0.08 0.06 0.06 0.06 0.05 0.02 0.01 0.02 0.08 0.09 0.09 0.07 0.05 0.05
0.05 0.04 0.08 0.06 0.04 0.02 0.02 0.03 0.02 0.02 0.02 0.02 0.02 0.03 0.03 0.03 0.03 0.03 0.03 0.05 0.05 0.06 0.07 0.07 0.07 0.08 0.07 0.07 0.08 0.09 0.07 0.08 0.06 0.02 0.01 0.01 0.02 0.07 0.07 0.07 0.05 0.04 0.05
0.03 0.03 0.06 0.04 0.02 0.01 0.01 0.02 0.02 0.02 0.01 0.01 0.02 0.02 0.02 0.02 0.02 0.02 0.02 0.03 0.04 0.05 0.05 0.05 0.06 0.08 0.09 0.10 0.10 0.11 0.10 0.09 0.05 0.02 0.02 0.01 0.02 0.07 0.08 0.07 0.06 0.05 0.06
0.01 0.02 0.03 0.03 0.01 0.01 0.02 0.02 0.01 0.02 0.02 0.01 0.01 0.02 0.02 0.02 0.02 0.01 0.02 0.02 0.05 0.06 0.05 0.05 0.06 0.08 0.09 0.09 0.10 0.11 0.09 0.05 0.02 0.02 0.01 0.01 0.03 0.06 0.07 0.07 0.06 0.06 0.06
0.01 0.01 0.01 0.02 0.01 0.01 0.01 0.02 0.01 0.01 0.01 0.01 0.01 0.01 0.01 0.01 0.01 0.01 0.01 0.02 0.07 0.07 0.07 0.07 0.08 0.07 0.07 0.06 0.08 0.10 0.09 0.04 0.01 0.02 0.01 0.01 0.03 0.05 0.05 0.05 0.06 0.05 0.06
0.01 0.01 0.01 0.02 0.02 0.01 0.01 0.01 0.01 0.01 0.01 0.00 0.00 0.00 0.00 0.01 0.00 0.00 0.01 0.01 0.02 0.03 0.06 0.07 0.09 0.08 0.09 0.08 0.07 0.07 0.07 0.04 0.01 0.01 0.01 0.01 0.03 0.04 0.06 0.05 0.04 0.04 0.05
0.01 0.01 0.01 0.02 0.02 0.01 0.01 0.01 0.01 0.01 0.00 0.00 0.00 0.00 0.00 0.01 0.00 0.00 0.01 0.01 0.01 0.02 0.03 0.05 0.07 0.07 0.07 0.07 0.06 0.07 0.08 0.04 0.01 0.01 0.01 0.02 0.03 0.04 0.06 0.05 0.04 0.04 0.04
0.01 0.01 0.01 0.01 0.02 0.02 0.01 0.01 0.01 0.01 0.00 0.00 0.00 0.01 0.00 0.00 0.00 0.00 0.01 0.01 0.01 0.02 0.03 0.04 0.05 0.06 0.05 0.06 0.06 0.07 0.06 0.03 0.01 0.00 0.01 0.02 0.03 0.04 0.05 0.05 0.06 0.05 0.03
0.01 0.01 0.01 0.01 0.01 0.01 0.00 0.00 0.01 0.01 0.00 0.00 0.00 0.00 0.00 0.00 0.00 0.00 0.01 0.01 0.01 0.02 0.02 0.03 0.03 0.04 0.03 0.03 0.03 0.04 0.03 0.02 0.01 0.01 0.02 0.03 0.04 0.05 0.05 0.06 0.08 0.08 0.07
0.00 0.00 0.00 0.00 0.00 0.00 0.00 0.00 0.00 0.01 0.00 0.00 0.00 0.00 0.00 0.00 0.00 0.00 0.00 0.00 0.01 0.01 0.01 0.01 0.01 0.01 0.02 0.02 0.02 0.02 0.02 0.02 0.01 0.01 0.02 0.04 0.05 0.05 0.05 0.06 0.09 0.11 0.10
0.00 0.01 0.01 0.00 0.00 0.00 0.00 0.00 0.00 0.00 0.00 0.00 0.00 0.00 0.00 0.00 0.00 0.00 0.00 0.00 0.00 0.00 0.01 0.01 0.01 0.01 0.02 0.03 0.02 0.02 0.02 0.02 0.01 0.01 0.02 0.03 0.04 0.05 0.05 0.06 0.12 0.13 0.10
0.01 0.01 0.01 0.01 0.01 0.01 0.00 0.00 0.00 0.00 0.00 0.00 0.00 0.00 0.00 0.00 0.00 0.00 0.00 0.00 0.00 0.01 0.01 0.01 0.02 0.03 0.02 0.03 0.03 0.02 0.01 0.01 0.01 0.00 0.02 0.06 0.08 0.06 0.07 0.11 0.17 0.11 0.06
0.01 0.01 0.01 0.01 0.01 0.01 0.01 0.00 0.01 0.00 0.00 0.00 0.00 0.00 0.00 0.00 0.00 0.00 0.00 0.01 0.01 0.00 0.01 0.02 0.03 0.03 0.02 0.03 0.03 0.03 0.02 0.02 0.02 0.01 0.01 0.04 0.05 0.06 0.10 0.15 0.11 0.07 0.04
0.01 0.01 0.00 0.01 0.01 0.02 0.01 0.01 0.01 0.01 0.01 0.00 0.01 0.01 0.01 0.01 0.01 0.01 0.01 0.01 0.01 0.01 0.01 0.03 0.03 0.03 0.04 0.04 0.03 0.03 0.03 0.02 0.02 0.02 0.02 0.02 0.03 0.05 0.07 0.10 0.11 0.09 0.08
0.03 0.02 0.01 0.01 0.01 0.02 0.02 0.02 0.02 0.02 0.02 0.01 0.01 0.02 0.02 0.02 0.02 0.01 0.01 0.01 0.01 0.01 0.02 0.03 0.04 0.04 0.04 0.03 0.04 0.03 0.02 0.02 0.02 0.02 0.02 0.01 0.02 0.02 0.03 0.06 0.06 0.06 0.07
0.03 0.02 0.02 0.01 0.01 0.01 0.02 0.02 0.02 0.03 0.02 0.02 0.01 0.02 0.02 0.03 0.03 0.02 0.01 0.01 0.01 0.01 0.02 0.02 0.03 0.03 0.02 0.02 0.03 0.04 0.03 0.04 0.03 0.03 0.03 0.02 0.02 0.01 0.01 0.03 0.05 0.05 0.06
0.02 0.01 0.01 0.02 0.01 0.02 0.02 0.03 0.02 0.02 0.02 0.02 0.02 0.03 0.03 0.03 0.02 0.02 0.01 0.01 0.01 0.02 0.02 0.01 0.03 0.03 0.02 0.02 0.03 0.04 0.04 0.04 0.05 0.03 0.03 0.03 0.02 0.02 0.02 0.01 0.02 0.02 0.03
0.02 0.01 0.02 0.02 0.02 0.02 0.03 0.03 0.03 0.03 0.03 0.03 0.03 0.04 0.03 0.03 0.02 0.01 0.01 0.01 0.01 0.01 0.01 0.02 0.02 0.02 0.01 0.01 0.03 0.04 0.02 0.03 0.05 0.03 0.03 0.03 0.03 0.02 0.03 0.04 0.03 0.02 0.02
0.03 0.02 0.02 0.02 0.03 0.04 0.06 0.06 0.06 0.06 0.06 0.06 0.05 0.04 0.03 0.03 0.02 0.02 0.02 0.02 0.01 0.02 0.04 0.02 0.02 0.02 0.02 0.01 0.02 0.03 0.02 0.02 0.02 0.02 0.02 0.02 0.02 0.02 0.02 0.04 0.03 0.02 0.01
0.03 0.03 0.03 0.04 0.05 0.07 0.10 0.11 0.08 0.06 0.07 0.06 0.05 0.04 0.03 0.03 0.03 0.01 0.02 0.03 0.02 0.02 0.04 0.03 0.02 0.02 0.02 0.01 0.02 0.03 0.01 0.01 0.01 0.01 0.01 0.01 0.03 0.03 0.03 0.03 0.02 0.02 0.02
0.03 0.05 0.05 0.05 0.07 0.08 0.10 0.07 0.05 0.04 0.04 0.04 0.03 0.03 0.04 0.04 0.03 0.02 0.02 0.03 0.01 0.01 0.02 0.03 0.03 0.02 0.02 0.02 0.01 0.02 0.02 0.01 0.01 0.01 0.01 0.01 0.02 0.03 0.03 0.02 0.02 0.02 0.01
0.05 0.07 0.08 0.09 0.08 0.07 0.07 0.06 0.05 0.04 0.04 0.05 0.04 0.03 0.03 0.03 0.03 0.03 0.03 0.03 0.02 0.01 0.01 0.01 0.02 0.02 0.02 0.02 0.02 0.02 0.02 0.01 0.01 0.02 0.02 0.02 0.01 0.01 0.01 0.02 0.01 0.01 0.01
0.06 0.08 0.10 0.09 0.06 0.05 0.07 0.08 0.08 0.05 0.04 0.03 0.03 0.02 0.02 0.02 0.03 0.04 0.04 0.04 0.03 0.02 0.02 0.01 0.02 0.03 0.02 0.01 0.01 0.01 0.01 0.01 0.02 0.02 0.01 0.01 0.01 0.01 0.01 0.01 0.01 0.01 0.01
MSLP
1011.94 1011.55 1011.29 1011.19 1011.22 1011.34 1011.48 1011.60 1011.66 1011.65 1011.60 1011.54 1011.52 1011.58 1011.73 1011.95 1012.22 1012.49 1012.73 1012.92 1013.06 1013.16 1013.25 1013.37 1013.53 1013.74 1014.01 1014.28 1014.55 1014.79 1014.98 1015.12 1015.23 1015.34 1015.47 1015.63 1015.84 1016.09 1016.37 1016.66 1016.94 1017.20 1017.45
1011.86 1011.60 1011.45 1011.43 1011.52 1011.66 1011.81 1011.92 1011.96 1011.93 1011.87 1011.82 1011.83 1011.92 1012.10 1012.35 1012.64 1012.91 1013.14 1013.30 1013.41 1013.48 1013.56 1013.67 1013.84 1014.06 1014.33 1014.61 1014.88 1015.11 1015.29 1015.43 1015.54 1015.65 1015.78 1015.96 1016.18 1016.44 1016.71 1017.00 1017.27 1017.53 1017.77
1011.71 1011.56 1011.50 1011.56 1011.72 1011.91 1012.09 1012.21 1012.26 1012.25 1012.21 1012.20 1012.23 1012.35 1012.55 1012.81 1013.08 1013.32 1013.51 1013.62 1013.70 1013.74 1013.81 1013.92 1014.10 1014.34 1014.63 1014.92 1015.20 1015.43 1015.62 1015.76 1015.88 1016.00 1016.15 1016.34 1016.57 1016.83 1017.10 1017.37 1017.64 1017.88 1018.12
1011.53 1011.46 1011.49 1011.63 1011.85 1012.10 1012.33 1012.49 1012.58 1012.61 1012.61 1012.63 1012.71 1012.85 1013.05 1013.28 1013.52 1013.71 1013.84 1013.91 1013.95 1013.98 1014.04 1014.17 1014.37 1014.63 1014.94 1015.25 1015.54 1015.78 1015.97 1016.12 1016.25 1016.39 1016.56 1016.76 1016.99 1017.25 1017.52 1017.78 1018.03 1018.26 1018.50
1011.40 1011.38 1011.48 1011.68 1011.97 1012.27 1012.55 1012.76 1012.90 1012.97 1013.02 1013.08 1013.17 1013.33 1013.52 1013.73 1013.92 1014.06 1014.15 1014.18 1014.19 1014.21 1014.28 1014.43 1014.66 1014.95 1015.28 1015.60 1015.90 1016.14 1016.34 1016.50 1016.65 1016.81 1016.99 1017.21 1017.45 1017.70 1017.95 1018.19 1018.42 1018.64 1018.87
1011.34 1011.38 1011.52 1011.78 1012.10 1012.45 1012.77 1013.01 1013.18 1013.29 1013.37 1013.45 1013.57 1013.73 1013.91 1014.10 1014.26 1014.37 1014.42 1014.43 1014.44 1014.48 1014.57 1014.75 1015.00 1015.32 1015.65 1015.98 1016.27 1016.51 1016.71 1016.88 1017.04 1017.22 1017.43 1017.66 1017.90 1018.14 1018.37 1018.59 1018.79 1019.00 1019.22
1011.41 1011.47 1011.65 1011.94 1012.29 1012.66 1012.98 1013.23 1013.41 1013.53 1013.62 1013.72 1013.85 1014.02 1014.20 1014.38 1014.53 1014.64 1014.68 1014.71 1014.73 1014.79 1014.92 1015.12 1015.40 1015.72 1016.05 1016.36 1016.64 1016.86 1017.06 1017.23 1017.41 1017.61 1017.84 1018.08 1018.32 1018.56 1018.77 1018.96 1019.14 1019.32 1019.52
1011.59 1011.67 1011.87 1012.18 1012.53 1012.89 1013.19 1013.42 1013.58 1013.68 1013.77 1013.87 1014.01 1014.19 1014.39 1014.59 1014.76 1014.88 1014.95 1015.01 1015.07 1015.16 1015.32 1015.54 1015.83 1016.14 1016.45 1016.73 1016.98 1017.18 1017.36 1017.53 1017.73 1017.95 1018.19 1018.45 1018.70 1018.93 1019.12 1019.28 1019.43 1019.58 1019.76
1011.84 1011.95 1012.17 1012.48 1012.82 1013.15 1013.41 1013.59 1013.71 1013.78 1013.85 1013.95 1014.10 1014.30 1014.53 1014.76 1014.97 1015.13 1015.24 1015.34 1015.44 1015.57 1015.74 1015.98 1016.25 1016.54 1016.81 1017.06 1017.26 1017.44 1017.60 1017.77 1017.97 1018.22 1018.48 1018.76 1019.02 1019.25 1019.43 1019.57 1019.68 1019.80 1019.95
1012.11 1012.25 1012.50 1012.81 1013.14 1013.42 1013.64 1013.76 1013.83 1013.86 1013.91 1014.02 1014.18 1014.42 1014.69 1014.96 1015.21 1015.42 1015.58 1015.71 1015.84 1015.98 1016.17 1016.39 1016.64 1016.89 1017.12 1017.32 1017.49 1017.63 1017.78 1017.95 1018.16 1018.41 1018.71 1019.00 1019.27 1019.50 1019.67 1019.79 1019.89 1019.98 1020.10
1012.33 1012.53 1012.81 1013.14 1013.45 1013.70 1013.86 1013.95 1013.97 1013.98 1014.02 1014.13 1014.33 1014.60 1014.91 1015.23 1015.52 1015.76 1015.95 1016.10 1016.24 1016.39 1016.56 1016.76 1016.97 1017.18 1017.37 1017.53 1017.66 1017.78 1017.91 1018.07 1018.29 1018.55 1018.86 1019.17 1019.46 1019.69 1019.86 1019.98 1020.06 1020.14 1020.24
1012.46 1012.72 1013.06 1013.41 1013.72 1013.95 1014.08 1014.13 1014.14 1014.14 1014.19 1014.33 1014.56 1014.86 1015.22 1015.57 1015.89 1016.15 1016.34 1016.49 1016.62 1016.75 1016.90 1017.06 1017.24 1017.41 1017.57 1017.69 1017.79 1017.89 1018.01 1018.17 1018.38 1018.65 1018.96 1019.28 1019.57 1019.81 1019.99 1020.11 1020.20 1020.27 1020.37
1012.48 1012.82 1013.20 1013.58 1013.90 1014.13 1014.26 1014.30 1014.31 1014.33 1014.41 1014.59 1014.86 1015.20 1015.58 1015.95 1016.28 1016.54 1016.72 1016.85 1016.95 1017.05 1017.16 1017.29 1017.44 1017.59 1017.72 1017.83 1017.92 1018.01 1018.12 1018.27 1018.47 1018.72 1019.02 1019.33 1019.62 1019.87 1020.06 1020.20 1020.30 1020.39 1020.50
1012.39 1012.79 1013.21 1013.62 1013.96 1014.20 1014.34 1014.42 1014.46 1014.52 1014.64 1014.86 1015.16 1015.54 1015.93 1016.31 1016.63 1016.88 1017.03 1017.14 1017.21 1017.27 1017.35 1017.47 1017.60 1017.73 1017.87 1017.98 1018.07 1018.16 1018.26 1018.39 1018.56 1018.79 1019.05 1019.34 1019.61 1019.86 1020.07 1020.23 1020.36 1020.48 1020.61
1012.21 1012.64 1013.09 1013.52 1013.88 1014.15 1014.32 1014.43 1014.52 1014.64 1014.81 1015.07 1015.41 1015.80 1016.20 1016.57 1016.88 1017.10 1017.24 1017.31 1017.36 1017.41 1017.48 1017.59 1017.72 1017.88 1018.02 1018.15 1018.25 1018.34 1018.43 1018.53 1018.67 1018.85 1019.07 1019.31 1019.56 1019.80 1020.02 1020.20 1020.37 1020.52 1020.68
1011.94 1012.39 1012.85 1013.28 1013.66 1013.95 1014.17 1014.33 1014.48 1014.65 1014.87 1015.16 1015.52 1015.91 1016.31 1016.66 1016.96 1017.16 1017.29 1017.36 1017.41 1017.47 1017.56 1017.68 1017.84 1018.02 1018.19 1018.34 1018.47 1018.56 1018.64 1018.71 1018.80 1018.92 1019.08 1019.26 1019.47 1019.69 1019.91 1020.11 1020.31 1020.50 1020.69
1011.62 1012.05 1012.51 1012.95 1013.33 1013.66 1013.92 1014.13 1014.33 1014.55 1014.81 1015.12 1015.47 1015.86 1016.23 1016.58 1016.85 1017.06 1017.20 1017.30 1017.38 1017.47 1017.60 1017.76 1017.96 1018.17 1018.38 1018.56 1018.70 1018.80 1018.86 1018.90 1018.94 1019.00 1019.09 1019.21 1019.38 1019.56 1019.77 1019.98 1020.20 1020.41 1020.62
1011.28 1011.68 1012.12 1012.55 1012.95 1013.30 1013.61 1013.88 1014.13 1014.38 1014.65 1014.96 1015.30 1015.66 1016.01 1016.33 1016.60 1016.83 1017.01 1017.15 1017.29 1017.44 1017.62 1017.83 1018.07 1018.32 1018.56 1018.77 1018.92 1019.03 1019.08 1019.09 1019.09 1019.09 1019.12 1019.18 1019.29 1019.44 1019.62 1019.82 1020.04 1020.26 1020.48
1010.91 1011.29 1011.72 1012.15 1012.57 1012.96 1013.31 1013.63 1013.92 1014.20 1014.47 1014.76 1015.06 1015.38 1015.69 1015.99 1016.27 1016.52 1016.75 1016.96 1017.17 1017.39 1017.63 1017.89 1018.17 1018.46 1018.72 1018.95 1019.11 1019.22 1019.27 1019.27 1019.24 1019.20 1019.17 1019.18 1019.23 1019.33 1019.47 1019.65 1019.85 1020.06 1020.27
1010.52 1010.90 1011.32 1011.77 1012.22 1012.66 1013.07 1013.44 1013.77 1014.05 1014.32 1014.57 1014.83 1015.09 1015.36 1015.64 1015.92 1016.21 1016.49 1016.77 1017.05 1017.34 1017.63 1017.94 1018.25 1018.55 1018.83 1019.07 1019.25 1019.37 1019.42 1019.42 1019.38 1019.32 1019.26 1019.22 1019.22 1019.27 1019.36 1019.49 1019.65 1019.83 1020.01
1010.12 1010.52 1010.95 1011.43 1011.93 1012.43 1012.90 1013.32 1013.68 1013.99 1014.23 1014.45 1014.65 1014.86 1015.09 1015.34 1015.62 1015.93 1016.27 1016.60 1016.95 1017.29 1017.62 1017.96 1018.28 1018.58 1018.86 1019.11 1019.30 1019.44 1019.52 1019.54 1019.51 1019.45 1019.37 1019.30 1019.25 1019.24 1019.27 1019.34 1019.45 1019.58 1019.72
1009.71 1010.12 1010.60 1011.12 1011.68 1012.24 1012.77 1013.25 1013.65 1013.97 1014.21 1014.39 1014.54 1014.70 1014.88 1015.11 1015.39 1015.72 1016.09 1016.47 1016.85 1017.23 1017.59 1017.92 1018.24 1018.53 1018.81 1019.06 1019.27 1019.44 1019.56 1019.62 1019.62 1019.58 1019.50 1019.40 1019.31 1019.24 1019.21 1019.20 1019.24 1019.31 1019.40
1009.27 1009.73 1010.24 1010.81 1011.42 1012.03 1012.63 1013.16 1013.59 1013.93 1014.17 1014.33 1014.46 1014.58 1014.73 1014.94 1015.22 1015.55 1015.94 1016.34 1016.75 1017.13 1017.49 1017.82 1018.11 1018.39 1018.66 1018.91 1019.15 1019.36 1019.53 1019.64 1019.70 1019.68 1019.61 1019.50 1019.37 1019.24 1019.14 1019.06 1019.03 1019.03 1019.08
1008.83 1009.32 1009.86 1010.46 1011.10 1011.75 1012.38 1012.95 1013.42 1013.78 1014.03 1014.20 1014.31 1014.41 1014.55 1014.76 1015.03 1015.38 1015.77 1016.18 1016.59 1016.97 1017.32 1017.62 1017.89 1018.16 1018.42 1018.68 1018.95 1019.21 1019.43 1019.61 1019.72 1019.74 1019.69 1019.57 1019.41 1019.23 1019.05 1018.90 1018.80 1018.75 1018.74
1008.40 1008.91 1009.45 1010.04 1010.67 1011.33 1011.97 1012.55 1013.05 1013.43 1013.71 1013.89 1014.02 1014.13 1014.28 1014.49 1014.78 1015.14 1015.53 1015.95 1016.35 1016.72 1017.04 1017.33 1017.58 1017.83 1018.10 1018.38 1018.68 1018.99 1019.28 1019.51 1019.67 1019.74 1019.71 1019.58 1019.39 1019.16 1018.93 1018.72 1018.55 1018.45 1018.41
1008.03 1008.51 1009.01 1009.55 1010.14 1010.75 1011.36 1011.94 1012.43 1012.84 1013.14 1013.36 1013.52 1013.68 1013.86 1014.10 1014.41 1014.78 1015.20 1015.61 1016.01 1016.37 1016.68 1016.95 1017.20 1017.44 1017.72 1018.02 1018.36 1018.72 1019.06 1019.35 1019.56 1019.66 1019.65 1019.53 1019.32 1019.06 1018.78 1018.52 1018.31 1018.16 1018.10
Thickness
5779 5781 5780 5779 5779 5778 5779 5779 5779 5779 5778 5778 5777 5776 5776 5776 5775 5775 5774 5772 5771 5770 5769 5767 5765 5763 5761 5760 5758 5756 5755 5753 5752 5750 5749 5747 5746 5744 5743 5741 5740 5739 5737
5784 5782 5780 5779 5778 5777 5777 5777 5777 5777 5776 5776 5775 5775 5774 5774 5773 5773 5772 5771 5770 5769 5767 5765 5763 5761 5760 5758 5756 5755 5753 5751 5750 5748 5747 5745 5744 5742 5741 5740 5739 5737 5736
5784 5782 5779 5777 5776 5776 5775 5775 5775 5775 5774 5774 5773 5773 5772 5772 5772 5771 5770 5769 5768 5766 5765 5763 5761 5760 5758 5756 5755 5753 5751 5749 5748 5746 5745 5743 5742 5740 5739 5738 5737 5736 5734
5784 5781 5778 5776 5775 5774 5774 5773 5773 5773 5772 5772 5772 5771 5771 5770 5770 5769 5768 5767 5766 5764 5763 5761 5760 5758 5756 5754 5753 5751 5749 5747 5746 5744 5742 5741 5740 5738 5737 5736 5735 5734 5732
5783 5780 5777 5775 5774 5773 5772 5771 5771 5771 5771 5770 5770 5770 5769 5768 5768 5767 5766 5765 5763 5762 5761 5759 5758 5756 5754 5753 5751 5749 5747 5745 5744 5742 5741 5739 5738 5737 5736 5734 5733 5732 5730
5782 5780 5777 5775 5773 5772 5771 5770 5769 5769 5769 5768 5768 5767 5767 5766 5766 5765 5764 5763 5761 5760 5759 5757 5756 5754 5752 5751 5749 5747 5745 5744 5741 5740 5739 5738 5737 5736 5734 5733 5731 5730 5728
5781 5778 5776 5774 5772 5770 5769 5768 5768 5767 5767 5766 5766 5765 5765 5764 5763 5763 5762 5761 5759 5758 5757 5756 5754 5752 5751 5749 5748 5746 5744 5742 5739 5738 5737 5736 5735 5734 5733 5731 5730 5729 5727
5780 5777 5775 5773 5771 5769 5768 5767 5766 5766 5765 5764 5764 5763 5762 5762 5761 5760 5759 5758 5757 5755 5754 5753 5752 5751 5749 5748 5746 5744 5742 5740 5737 5736 5735 5734 5733 5732 5731 5729 5728 5727 5725
5778 5776 5774 5772 5770 5768 5767 5766 5765 5764 5763 5763 5762 5761 5760 5759 5759 5758 5757 5756 5755 5753 5752 5751 5750 5749 5748 5746 5745 5743 5741 5738 5736 5734 5733 5732 5731 5730 5729 5727 5726 5725 5723
5776 5774 5773 5771 5769 5767 5766 5764 5763 5762 5762 5761 5760 5759 5758 5757 5756 5755 5754 5754 5752 5751 5750 5749 5748 5747 5746 5745 5743 5742 5739 5736 5734 5733 5732 5730 5729 5728 5727 5726 5724 5723 5721
5773 5772 5771 5769 5767 5766 5764 5763 5762 5761 5760 5759 5758 5757 5756 5755 5754 5753 5752 5752 5750 5749 5748 5747 5746 5745 5744 5743 5742 5740 5738 5735 5733 5731 5730 5729 5728 5727 5725 5724 5722 5721 5719
5771 5770 5770 5768 5767 5765 5764 5762 5760 5759 5758 5757 5756 5755 5754 5752 5751 5750 5750 5749 5748 5747 5746 5745 5744 5743 5742 5741 5740 5738 5736 5734 5732 5730 5729 5728 5727 5725 5724 5722 5721 5719 5718
5773 5771 5770 5768 5766 5765 5763 5761 5759 5758 5756 5755 5754 5752 5751 5750 5749 5748 5747 5746 5745 5745 5744 5743 5742 5741 5740 5739 5738 5736 5735 5733 5731 5729 5728 5727 5725 5724 5723 5721 5720 5718 5716
5773 5771 5770 5768 5766 5764 5762 5760 5758 5756 5754 5753 5751 5750 5749 5748 5746 5745 5744 5744 5743 5742 5742 5741 5741 5740 5739 5738 5737 5735 5733 5732 5730 5729 5727 5726 5725 5723 5722 5720 5719 5717 5715
5774 5772 5770 5769 5766 5763 5761 5759 5757 5755 5753 5752 5750 5748 5747 5746 5744 5743 5742 5742 5741 5741 5740 5739 5739 5738 5737 5736 5735 5734 5733 5731 5729 5728 5727 5725 5724 5722 5721 5720 5718 5716 5714
5776 5774 5772 5769 5766 5763 5761 5758 5757 5754 5752 5750 5749 5747 5746 5744 5743 5742 5741 5740 5740 5740 5739 5738 5737 5737 5736 5735 5734 5733 5732 5730 5729 5727 5726 5724 5723 5722 5720 5719 5717 5716 5714
5779 5777 5773 5770 5766 5763 5761 5758 5756 5754 5751 5749 5748 5746 5745 5744 5742 5741 5740 5739 5739 5739 5738 5737 5736 5736 5735 5734 5733 5732 5731 5730 5728 5726 5725 5723 5722 5721 5720 5718 5717 5715 5714
5780 5777 5774 5772 5767 5763 5760 5758 5756 5754 5751 5749 5747 5745 5744 5743 5742 5740 5739 5739 5738 5737 5737 5736 5735 5733 5732 5731 5730 5730 5730 5728 5727 5726 5724 5723 5722 5721 5720 5718 5717 5715 5714
5782 5778 5774 5772 5768 5764 5761 5758 5755 5753 5751 5749 5747 5745 5743 5742 5741 5740 5739 5738 5737 5736 5735 5735 5733 5731 5729 5729 5728 5728 5728 5727 5727 5726 5724 5723 5722 5721 5720 5719 5717 5716 5715
5783 5779 5775 5772 5769 5765 5760 5757 5754 5751 5749 5748 5747 5745 5744 5742 5741 5740 5739 5738 5737 5736 5734 5733 5731 5730 5729 5728 5728 5726 5726 5726 5726 5725 5725 5724 5722 5721 5720 5719 5718 5717 5716
5783 5778 5775 5771 5768 5764 5759 5756 5752 5749 5748 5747 5747 5745 5744 5742 5741 5740 5739 5738 5736 5735 5734 5733 5730 5728 5726 5726 5724 5721 5723 5724 5725 5725 5725 5724 5723 5722 5721 5720 5719 5718 5717
5784 5780 5776 5773 5769 5766 5763 5759 5755 5752 5749 5748 5747 5746 5744 5743 5742 5741 5739 5738 5737 5735 5733 5732 5730 5727 5726 5725 5722 5718 5715 5718 5722 5725 5725 5724 5724 5723 5722 5721 5720 5719 5718
5785 5782 5779 5775 5771 5767 5763 5759 5755 5751 5748 5746 5745 5744 5744 5743 5742 5741 5740 5738 5737 5736 5733 5732 5731 5728 5724 5724 5724 5719 5713 5710 5715 5721 5723 5724 5724 5724 5723 5722 5722 5721 5720
5790 5786 5781 5777 5772 5768 5764 5760 5755 5750 5747 5747 5747 5745 5744 5743 5742 5741 5740 5739 5738 5736 5734 5733 5732 5730 5727 5723 5722 5722 5721 5719 5714 5713 5719 5722 5723 5724 5724 5724 5723 5723 5721
5792 5787 5782 5777 5773 5769 5765 5762 5757 5754 5751 5749 5747 5745 5744 5743 5742 5742 5741 5739 5738 5737 5735 5734 5732 5730 5729 5726 5723 5722 5720 5718 5717 5713 5712 5716 5720 5723 5724 5724 5724 5723 5723
5792 5787 5782 5777 5773 5770 5766 5762 5758 5755 5751 5748 5746 5744 5743 5742 5742 5741 5740 5739 5738 5737 5736 5734 5733 5731 5729 5728 5726 5724 5722 5719 5717 5715 5712 5713 5715 5720 5723 5724 5724 5724 5724